DW5091 Weather Reports


time (UTC)temp
C
wind
direction
speed
KPH
gust
KPH
rain 1hr
cm
rain 24hr
cm
rain mn
cm
humidity
%
barometer
mb
20260502210104 11 124 0.0 1.6 0.00 0.51 0.51 98 1011.9
20260502205103 11 124 0.0 1.6 0.00 0.51 0.51 98 1011.8
20260502203603 11 131 0.0 1.6 0.00 0.51 0.51 98 1012.0
20260502203103 11 132 0.0 1.6 0.00 0.51 0.51 98 1012.1
20260502202603 11 125 0.0 1.6 0.00 0.51 0.51 98 1012.2
20260502202104 11 121 0.0 1.6 0.00 0.51 0.51 98 1012.2
20260502201102 11 122 0.0 1.6 0.00 0.51 0.51 98 1012.1
20260502200603 11 122 0.0 1.6 0.00 0.51 0.51 98 1012.0
20260502195103 11 142 0.0 1.6 0.00 0.51 0.51 98 1012.1
20260502193603 11 153 0.0 0.0 0.00 0.51 0.51 98 1012.3
20260502193103 11 153 0.0 1.6 0.00 0.51 0.51 98 1012.3
20260502192603 11 132 0.0 4.8 0.00 0.51 0.51 98 1012.3
20260502192103 11 132 0.0 3.2 0.00 0.51 0.51 98 1012.3
20260502190603 11 135 1.6 3.2 0.00 0.51 0.51 98 1012.4
20260502185603 11 124 0.0 1.6 0.00 0.51 0.51 98 1012.3
20260502184603 11 123 0.0 3.2 0.00 0.51 0.51 98 1012.4
20260502184103 11 134 0.0 1.6 0.00 0.51 0.51 98 1012.4
20260502183603 11 126 1.6 4.8 0.00 0.51 0.51 98 1012.3
20260502183103 11 123 1.6 3.2 0.00 0.51 0.51 98 1012.4
20260502163603 12 120 0.0 1.6 0.05 0.51 0.51 98 1012.9
20260502162103 12 27 0.0 1.6 0.13 0.51 0.51 97 1013.1
20260502161103 12 339 0.0 0.0 0.18 0.51 0.51 97 1013.2
20260502160104 12 339 0.0 0.0 0.25 0.51 0.51 97 1013.3
20260502151103 12 114 0.0 0.0 0.33 0.33 0.33 95 1014.0
20260502123604 18 119 3.2 9.7 0.00 0.00 0.00 62 1015.8
20260502122603 18 138 3.2 9.7 0.00 0.00 0.00 63 1015.9
20260502120104 18 323 0.0 4.8 0.00 0.00 0.00 62 1016.1
20260502115103 18 132 4.8 9.7 0.00 0.00 0.00 62 1016.3
20260502114103 18 98 1.6 3.2 0.00 0.00 0.00 63 1016.3
20260502113604 18 112 1.6 4.8 0.00 0.00 0.00 64 1016.4
20260502113104 18 98 1.6 11.3 0.00 0.00 0.00 64 1016.5
20260502111605 17 120 3.2 4.8 0.00 0.00 0.00 64 1016.6
20260502111103 17 138 0.0 3.2 0.00 0.00 0.00 65 1016.8
20260502110104 17 128 3.2 4.8 0.00 0.00 0.00 66 1016.9
20260502105603 17 140 0.0 4.8 0.00 0.00 0.00 66 1016.8
20260502104602 17 126 6.4 11.3 0.00 0.00 0.00 66 1017.1
20260502103603 17 134 3.2 11.3 0.00 0.00 0.00 68 1017.3
20260502102103 17 130 4.8 12.9 0.00 0.00 0.00 66 1017.6
20260502101603 16 142 3.2 4.8 0.00 0.00 0.00 67 1017.6
20260502100602 16 117 1.6 9.7 0.00 0.00 0.00 66 1017.6
20260502090104 16 141 1.6 4.8 0.00 0.00 0.00 73 1018.0
20260502070604 10 98 0.0 3.2 0.00 0.00 0.00 90 1018.5
20260502065603 10 111 0.0 0.0 0.00 0.00 0.00 92 1018.7
20260502064103 9 117 0.0 1.6 0.00 0.00 0.00 93 1018.8
20260502062103 8 121 0.0 1.6 0.00 0.00 0.00 94 1018.9
20260502061103 8 121 0.0 1.6 0.00 0.00 0.00 94 1018.9
20260502060603 8 121 0.0 1.6 0.00 0.00 0.00 94 1019.0
20260502055603 7 124 0.0 1.6 0.00 0.00 0.00 94 1019.0
20260502055103 7 116 0.0 1.6 0.00 0.00 0.00 94 1018.9
20260502054103 7 116 0.0 1.6 0.00 0.00 0.00 94 1019.0
20260502053103 7 116 0.0 0.0 0.00 0.00 0.00 94 1018.9
20260502052103 7 116 0.0 0.0 0.00 0.00 0.00 94 1018.9
20260502050603 7 116 0.0 0.0 0.00 0.00 0.00 94 1018.9
20260502045103 7 116 0.0 0.0 0.00 0.00 0.00 94 1018.8
20260502044104 7 116 0.0 0.0 0.00 0.00 0.00 94 1018.9
20260502043104 7 116 0.0 0.0 0.00 0.00 0.00 94 1018.8
20260502042103 7 116 0.0 1.6 0.00 0.00 0.00 94 1018.9
20260502041103 7 116 0.0 0.0 0.00 0.00 0.00 94 1018.9
20260502035103 7 116 0.0 0.0 0.00 0.00 0.00 94 1019.1
20260502034603 7 116 0.0 0.0 0.00 0.00 0.00 94 1019.2
20260502032604 7 116 0.0 0.0 0.00 0.00 0.00 93 1019.3
20260502032104 7 116 0.0 0.0 0.00 0.00 0.00 93 1019.4
20260502031603 7 116 0.0 0.0 0.00 0.00 0.00 93 1019.4
20260502030604 7 116 0.0 0.0 0.00 0.00 0.00 94 1019.5
20260502025603 7 116 0.0 0.0 0.00 0.00 0.00 93 1019.5
20260502024604 7 116 0.0 0.0 0.00 0.00 0.00 93 1019.5
20260502023604 7 116 0.0 1.6 0.00 0.00 0.00 92 1019.6
20260502021603 7 134 0.0 1.6 0.00 0.00 0.00 92 1019.6
20260502021103 7 134 0.0 1.6 0.00 0.00 0.00 92 1019.7
20260502014604 7 139 0.0 1.6 0.00 0.00 0.00 93 1019.8
20260502013603 7 132 0.0 1.6 0.00 0.00 0.00 93 1020.0
20260502013103 7 135 0.0 1.6 0.00 0.00 0.00 93 1020.0
20260502011603 7 135 0.0 1.6 0.00 0.00 0.00 92 1019.9
20260502011103 8 134 0.0 1.6 0.00 0.00 0.00 92 1020.0
20260502005603 8 119 0.0 0.0 0.00 0.00 0.00 92 1020.0
20260502005103 8 119 0.0 0.0 0.00 0.00 0.00 92 1020.1
20260502004103 8 119 0.0 1.6 0.00 0.00 0.00 91 1020.2
20260502003603 8 119 0.0 1.6 0.00 0.00 0.00 91 1020.2
20260502003104 8 119 0.0 1.6 0.00 0.00 0.00 91 1020.2
20260502002603 8 119 0.0 1.6 0.00 0.00 0.00 91 1020.1
20260502002103 8 119 0.0 0.0 0.00 0.00 0.00 91 1020.1
20260502001603 8 119 0.0 1.6 0.00 0.00 0.00 90 1020.2
20260502001103 8 119 0.0 0.0 0.00 0.00 0.00 90 1020.2
20260501233104 10 119 0.0 1.6 0.00 0.00 0.00 89 1020.6
20260501232603 10 119 0.0 1.6 0.00 0.00 0.00 89 1020.7
20260501231603 10 119 0.0 1.6 0.00 0.00 0.00 88 1020.9
20260501225603 10 136 0.0 1.6 0.00 0.00 0.00 88 1021.0
20260501225103 10 134 0.0 1.6 0.00 0.00 0.00 88 1021.0
20260501224603 10 124 0.0 1.6 0.00 0.00 0.00 88 1021.0
20260501224103 10 122 0.0 1.6 0.00 0.00 0.00 88 1021.0
20260501223103 10 133 0.0 1.6 0.00 0.00 0.00 89 1021.0
20260501222603 10 136 1.6 3.2 0.00 0.00 0.00 89 1021.0
20260501221603 11 124 0.0 1.6 0.00 0.00 0.00 90 1020.9
20260501220103 11 133 0.0 3.2 0.00 0.00 0.00 90 1020.9
20260501214603 11 138 0.0 1.6 0.00 0.00 0.00 89 1020.8
20260501213603 11 130 0.0 1.6 0.00 0.00 0.00 89 1020.7
20260501212104 11 314 0.0 0.0 0.00 0.00 0.00 89 1020.7